Starlink 35645

operational
NORAD ID: 66124 Int'l Des: 2025-237 Owner: SPXS Country: US Constellation: starlink
LEOCIRCULAR

About Starlink 35645

Description loading...

Live Position

Loading 3D Globe...

Upcoming Passes

Altitude History

Altitude vs Time

uPlot chart will show altitude changes over time

Two-Line Element Set

1 66124C 25237L 25298.72201389 -.01167100 00000+0 -19555-2 0 2982
2 66124 53.1551 319.2612 0000747 72.5072 115.6642 16.03302815 11
Epoch: Oct 25, 2025 • Age: 141 hours

Current Status

Altitude 309.3 km
Velocity 7.72 km/s
Sub-Earth Point -53.28°S, 150.33°W
Launch Date Oct 22, 2025
Age 8 days
Type internet

Technical Details

Classification Payload
Mass 575.00 kg
Dry Mass 530.00 kg
Total Mass 575.00 kg
Length 0.30 m
Diameter 4.10 m
Span 29.00 m
Shape Box + pan
Manufacturer SPXS
Bus Type Starlink V2MO
Phase Status In Orbit
Owner/State SPXS/US

Large Constellations

Loading constellations...